Location: PSU-Greenbush Astrophysical Observatory
(37.5140°N, 94.9880°W)
Time: 10:17:51
(UTC-06:00)

Altair - Pass Details

Date: 24 January 2020
Orbit: 1502 x 1682 km, 47.2° (Epoch: 25 February)

Event Time Altitude Azimuth Distance (km) Brightness Sun altitude
Rises 08:00:33 0° 218° (SW) 4,834 10.0 4.7°
Reaches altitude 10° 08:03:41 10° 215° (SW) 3,870 9.6 5.2°
Maximum altitude 08:13:24 61° 138° (SE) 1,860 8.6 6.9°
Drops below altitude 10° 08:23:20 10° 62° (ENE) 3,947 10.1 8.6°
Sets 08:26:33 0° 59° (ENE) 4,935 10.5 9.1°
